Date String (YYYY-MM-DD hh:mm:ss) UTC,Instrument flags,Ambient pressure (hPa),Sample flow (lpm),Bypass flow (lpm),Sample temperature (°C),Ambient temperature (°C),ASC tube jacket temperature (°C),LED temperature (°C),Box temperature (°C),Sample RH (%),Span deviation,Mass concentration (μg/m³),Mass concentration (μg/m³),Mass concentration (μg/m³)
DateTimeUTC,F1_M11,P_M11,Q1_M11,Q2_M11,T1_M11,T2_M11,T3_M11,T4_M11,T5_M11,U1_M11,ZSPAN_M11,X2_M11,X0_M11,X1_M11
2023-02-27 03:00:00,,0807.4,5.00,0.00,23.4,21.4,00.0,32.3,25.1,10.8,0000.0,0002.11,0004.76,0001.10
2023-02-27 03:01:00,,0807.4,5.00,0.00,23.4,21.5,00.0,32.3,25.1,10.8,0000.0,0002.08,0004.89,0001.09
2023-02-27 03:02:00,,0807.5,5.01,0.00,23.4,21.6,00.0,32.3,25.2,10.6,0000.0,0002.07,0005.01,0001.09
2023-02-27 03:03:00,,0807.5,5.01,0.00,23.4,21.6,00.0,32.3,25.2,10.6,0000.0,0002.07,0005.05,0001.07
2023-02-27 03:04:00,,0807.5,4.99,0.00,23.5,21.7,00.0,32.3,25.2,10.5,0000.0,0002.04,0004.83,0001.07
2023-02-27 03:05:00,,0807.5,5.02,0.00,23.5,21.7,00.0,32.3,25.2,10.4,0000.0,0001.98,0004.65,0001.07
2023-02-27 03:06:00,,0807.4,5.01,0.00,23.5,21.8,00.0,32.3,25.2,10.5,0000.0,0001.97,0004.58,0001.05
2023-02-27 03:07:00,,0807.4,4.99,0.00,23.5,21.8,00.0,32.3,25.2,10.6,0000.0,0001.91,0004.42,0001.03
2023-02-27 03:08:00,,0807.5,5.00,0.00,23.5,21.7,00.0,32.3,25.2,10.6,0000.0,0001.97,0004.54,0001.02
2023-02-27 03:09:00,,0807.4,4.98,0.00,23.4,21.6,00.0,32.2,25.2,10.7,0000.0,0001.99,0004.79,0001.01
2023-02-27 03:10:00,,0807.4,5.01,0.00,23.4,21.6,00.0,32.2,25.1,10.8,0000.0,0001.94,0004.73,0000.99
2023-02-27 03:11:00,,0807.4,5.00,0.00,23.4,21.6,00.0,32.2,25.1,10.8,0000.0,0001.89,0004.30,0000.97
2023-02-27 03:12:00,,0807.5,4.98,0.00,23.4,21.6,00.0,32.2,25.1,10.8,0000.0,0001.92,0004.17,0000.97
2023-02-27 03:13:00,,0807.7,4.99,0.00,23.4,21.6,00.0,32.2,25.1,10.7,0000.0,0001.98,0004.25,0000.97
2023-02-27 03:14:00,,0807.6,5.00,0.00,23.4,21.6,00.0,32.2,25.1,10.7,0000.0,0001.96,0004.20,0000.98
2023-02-27 03:15:00,,0807.5,5.00,0.00,23.4,21.6,00.0,32.2,25.1,10.7,0000.0,0001.95,0004.75,0000.97
2023-02-27 03:16:00,,0807.5,5.01,0.00,23.3,21.5,00.0,32.2,25.0,10.8,0000.0,0001.95,0006.08,0000.95
2023-02-27 03:17:00,,0807.4,5.00,0.00,23.3,21.5,00.0,32.2,25.0,10.9,0000.0,0001.94,0006.08,0000.95
2023-02-27 03:18:00,,0807.4,5.01,0.00,23.3,21.4,00.0,32.2,25.0,10.8,0000.0,0001.92,0007.33,0000.94
2023-02-27 03:19:00,,0807.4,5.00,0.00,23.3,21.3,00.0,32.1,24.9,10.6,0000.0,0001.88,0007.55,0000.94
2023-02-27 03:20:00,,0807.6,5.01,0.00,23.2,21.3,00.0,32.1,24.9,10.6,0000.0,0001.78,0007.46,0000.93
2023-02-27 03:21:00,,0807.5,5.00,0.00,23.2,21.3,00.0,32.1,24.9,10.7,0000.0,0001.81,0007.47,0000.93
2023-02-27 03:22:00,,0807.4,5.00,0.00,23.2,21.3,00.0,32.1,24.9,10.6,0000.0,0001.85,0008.14,0000.91
2023-02-27 03:23:00,,0807.2,4.99,0.00,23.2,21.2,00.0,32.1,24.9,10.6,0000.0,0001.77,0008.05,0000.90
2023-02-27 03:24:00,,0807.3,5.01,0.00,23.1,21.1,00.0,32.0,24.8,10.7,0000.0,0001.70,0008.01,0000.88
2023-02-27 03:25:00,,0807.3,5.00,0.00,23.1,21.0,00.0,32.0,24.7,10.8,0000.0,0001.65,0007.94,0000.85
2023-02-27 03:26:00,,0807.3,5.00,0.00,23.0,20.9,00.0,32.0,24.6,10.7,0000.0,0001.65,0007.57,0000.85
2023-02-27 03:27:00,,0807.3,5.00,0.00,23.0,20.8,00.0,32.0,24.6,10.7,0000.0,0001.66,0007.41,0000.84
2023-02-27 03:28:00,,0807.3,5.01,0.00,22.9,20.7,00.0,31.9,24.5,10.6,0000.0,0001.68,0007.82,0000.83
2023-02-27 03:29:00,,0807.2,5.00,0.00,22.9,20.6,00.0,31.9,24.4,10.6,0000.0,0001.70,0007.66,0000.82
2023-02-27 03:30:00,,0807.3,5.00,0.00,22.8,20.7,00.0,31.9,24.4,10.6,0000.0,0001.67,0007.39,0000.81
2023-02-27 03:31:00,,0807.5,5.00,0.00,22.8,20.7,00.0,31.8,24.4,10.8,0000.0,0001.68,0007.36,0000.80
2023-02-27 03:32:00,,0807.5,5.00,0.00,22.8,20.6,00.0,31.8,24.4,11.1,0000.0,0001.66,0007.36,0000.81
2023-02-27 03:33:00,,0807.4,5.00,0.00,22.7,20.5,00.0,31.8,24.3,11.3,0000.0,0001.60,0006.16,0000.83
2023-02-27 03:34:00,,0807.4,5.00,0.00,22.7,20.5,00.0,31.7,24.2,11.3,0000.0,0001.60,0005.98,0000.82
2023-02-27 03:35:00,,0807.4,5.01,0.00,22.6,20.4,00.0,31.7,24.1,11.2,0000.0,0001.55,0005.78,0000.82
2023-02-27 03:36:00,,0807.3,5.00,0.00,22.5,20.3,00.0,31.7,24.1,11.0,0000.0,0001.57,0005.77,0000.84
2023-02-27 03:37:00,,0807.3,5.00,0.00,22.5,20.3,00.0,31.6,24.0,10.8,0000.0,0001.54,0005.73,0000.82
2023-02-27 03:38:00,,0807.5,5.00,0.00,22.5,20.3,00.0,31.6,24.1,10.5,0000.0,0001.53,0004.89,0000.81
2023-02-27 03:39:00,,0807.5,5.00,0.00,22.4,20.3,00.0,31.6,24.0,10.6,0000.0,0001.50,0004.23,0000.81
2023-02-27 03:40:00,,0807.6,4.99,0.00,22.4,20.3,00.0,31.5,24.0,10.9,0000.0,0001.45,0003.11,0000.79
2023-02-27 03:41:00,,0807.6,5.00,0.00,22.4,20.3,00.0,31.5,24.0,11.2,0000.0,0001.46,0003.18,0000.78
2023-02-27 03:42:00,,0807.6,4.99,0.00,22.4,20.3,00.0,31.4,24.0,10.8,0000.0,0001.46,0003.78,0000.77
2023-02-27 03:43:00,,0807.5,5.01,0.00,22.3,20.2,00.0,31.4,23.9,10.9,0000.0,0001.41,0003.85,0000.76
2023-02-27 03:44:00,,0807.6,5.01,0.00,22.3,20.2,00.0,31.4,23.9,10.7,0000.0,0001.37,0003.75,0000.73
2023-02-27 03:45:00,,0807.6,5.00,0.00,22.2,20.1,00.0,31.3,23.8,10.9,0000.0,0001.36,0003.72,0000.72
2023-02-27 03:46:00,,0807.7,5.00,0.00,22.2,20.1,00.0,31.3,23.7,10.9,0000.0,0001.36,0003.69,0000.70
2023-02-27 03:47:00,,0807.7,5.00,0.00,22.2,20.1,00.0,31.3,23.8,10.7,0000.0,0001.36,0003.72,0000.68
2023-02-27 03:48:00,,0807.9,5.00,0.00,22.1,20.1,00.0,31.3,23.7,10.7,0000.0,0001.36,0003.66,0000.68
2023-02-27 03:49:00,,0808.0,5.01,0.00,22.1,20.0,00.0,31.2,23.7,10.7,0000.0,0001.33,0003.45,0000.67
2023-02-27 03:50:00,,0807.8,5.00,0.00,22.1,20.0,00.0,31.2,23.7,10.8,0000.0,0001.35,0003.60,0000.67
2023-02-27 03:51:00,,0807.8,5.01,0.00,22.1,20.0,00.0,31.2,23.7,10.9,0000.0,0001.38,0003.76,0000.68
2023-02-27 03:52:00,,0807.9,4.99,0.00,22.1,20.1,00.0,31.2,23.8,10.9,0000.0,0001.35,0003.64,0000.67
2023-02-27 03:53:00,,0808.0,4.99,0.00,22.1,20.2,00.0,31.1,23.9,11.0,0000.0,0001.38,0003.13,0000.67
2023-02-27 03:54:00,,0808.0,5.00,0.00,22.1,20.3,00.0,31.1,23.9,11.0,0000.0,0001.39,0002.81,0000.67
2023-02-27 03:55:00,,0808.1,5.00,0.00,22.2,20.4,00.0,31.1,23.9,11.0,0000.0,0001.43,0002.94,0000.68
2023-02-27 03:56:00,,0808.1,4.99,0.00,22.2,20.5,00.0,31.1,23.9,11.0,0000.0,0001.44,0003.00,0000.67
2023-02-27 03:57:00,,0808.1,4.99,0.00,22.2,20.6,00.0,31.1,24.0,10.9,0000.0,0001.41,0002.96,0000.67
2023-02-27 03:58:00,,0808.1,4.99,0.00,22.2,20.6,00.0,31.1,24.0,10.9,0000.0,0001.37,0003.38,0000.67
2023-02-27 03:59:00,,0808.1,5.01,0.00,22.2,20.6,00.0,31.1,24.0,10.8,0000.0,0001.38,0003.53,0000.67
